When you browse on this site, cookies collect data to enhance your experience and personalize the content and advertising you see.
Visit our Privacy Policy to learn more. By continuing to use the site, you agree to this use of cookies and data.
  • In Lithuania
  • List of Countries
  • For 7 days
  • Water Temperature
  • Satellite Maps
  • Weather Map
  • Weather Widgets
  • user-avatar
    Login

    Hourly Weather Erattupetta

    Today, 12 December, Wednesday

    Time Temperature Precipitation Wind Pressure Humidity
    00:00 +25°C° 0 mm 1 mps 739 mmHg 89%
    01:00 +24°C° 0 mm 1 mps 738 mmHg 90%
    02:00 +24°C° 0 mm 1 mps 738 mmHg 90%
    03:00 +24°C° 0 mm 1 mps 738 mmHg 90%
    04:00 +24°C° 0 mm 1 mps 738 mmHg 90%
    05:00 +24°C° 0 mm 1 mps 738 mmHg 89%
    06:00 +25°C° 0 mm 1 mps 739 mmHg 84%
    07:00 +26°C° 0 mm 1 mps 739 mmHg 79%
    08:00 +26°C° 0 mm 0 mps 740 mmHg 73%
    09:00 +28°C° 0 mm 0 mps 740 mmHg 65%
    10:00 +30°C° 0 mm 0 mps 740 mmHg 57%
    11:00 +32°C° 0 mm 0 mps 740 mmHg 49%
    12:00 +33°C° 0 mm 1 mps 739 mmHg 52%
    13:00 +33°C° 0 mm 1 mps 738 mmHg 54%
    14:00 +32°C° 0 mm 2 mps 738 mmHg 57%
    15:00 +31°C° 0.2 mm 1 mps 738 mmHg 65%
    16:00 +30°C° 0.2 mm 1 mps 737 mmHg 73%
    17:00 +28°C° 0.2 mm 1 mps 737 mmHg 80%
    18:00 +28°C° 0.3 mm 1 mps 738 mmHg 83%
    19:00 +27°C° 0.3 mm 1 mps 739 mmHg 86%
    20:00 +24°C° 0.3 mm 0 mps 739 mmHg 89%
    21:00 +24°C° 0.2 mm 0 mps 739 mmHg 90%
    22:00 +23°C° 0.2 mm 0 mps 739 mmHg 90%
    23:00 +25°C° 0.2 mm 1 mps 739 mmHg 91%

    Tomorrow, 13 December, Thursday

    Time Temperature Precipitation Wind Pressure Humidity
    00:00 +25°C° 0 mm 1 mps 739 mmHg 91%
    01:00 +24°C° 0 mm 1 mps 739 mmHg 92%
    02:00 +24°C° 0 mm 1 mps 738 mmHg 92%
    03:00 +24°C° 0 mm 1 mps 738 mmHg 92%
    04:00 +24°C° 0 mm 1 mps 738 mmHg 92%
    05:00 +23°C° 0 mm 1 mps 738 mmHg 91%
    06:00 +25°C° 0 mm 1 mps 739 mmHg 87%
    07:00 +26°C° 0 mm 1 mps 739 mmHg 82%
    08:00 +27°C° 0 mm 1 mps 740 mmHg 77%
    09:00 +30°C° 0 mm 1 mps 740 mmHg 67%
    10:00 +32°C° 0 mm 1 mps 740 mmHg 57%
    11:00 +34°C° 0 mm 1 mps 740 mmHg 48%
    12:00 +34°C° 0 mm 1 mps 739 mmHg 49%
    13:00 +33°C° 0 mm 1 mps 738 mmHg 51%
    14:00 +34°C° 0 mm 2 mps 737 mmHg 52%
    15:00 +31°C° 0.1 mm 2 mps 737 mmHg 61%
    16:00 +30°C° 0.1 mm 1 mps 737 mmHg 70%
    17:00 +28°C° 0.1 mm 1 mps 737 mmHg 78%
    18:00 +27°C° 0.3 mm 1 mps 738 mmHg 82%
    19:00 +27°C° 0.3 mm 1 mps 738 mmHg 86%
    20:00 +24°C° 0.3 mm 0 mps 739 mmHg 89%
    21:00 +23°C° 0.1 mm 0 mps 739 mmHg 90%
    22:00 +23°C° 0.1 mm 0 mps 739 mmHg 90%
    23:00 +23°C° 0.1 mm 0 mps 739 mmHg 90%

    Day after tomorrow, 14 December, Friday

    Time Temperature Precipitation Wind Pressure Humidity
    00:00 +24°C° 0 mm 1 mps 738 mmHg 91%
    01:00 +24°C° 0 mm 1 mps 738 mmHg 91%
    02:00 +24°C° 0 mm 1 mps 738 mmHg 91%
    03:00 +23°C° 0 mm 1 mps 738 mmHg 91%
    04:00 +23°C° 0 mm 1 mps 738 mmHg 90%
    05:00 +23°C° 0 mm 1 mps 738 mmHg 90%
    06:00 +24°C° 0 mm 1 mps 738 mmHg 85%
    07:00 +26°C° 0 mm 1 mps 739 mmHg 80%
    08:00 +25°C° 0 mm 0 mps 740 mmHg 74%
    09:00 +28°C° 0 mm 0 mps 739 mmHg 64%
    10:00 +30°C° 0 mm 0 mps 739 mmHg 54%
    11:00 +32°C° 0 mm 0 mps 739 mmHg 44%
    12:00 +34°C° 0 mm 1 mps 738 mmHg 44%
    13:00 +34°C° 0 mm 1 mps 738 mmHg 45%
    14:00 +33°C° 0 mm 1 mps 737 mmHg 45%
    15:00 +32°C° 0 mm 1 mps 737 mmHg 54%
    16:00 +30°C° 0 mm 1 mps 737 mmHg 64%
    17:00 +28°C° 0 mm 1 mps 736 mmHg 73%
    18:00 +27°C° 0 mm 1 mps 737 mmHg 75%
    19:00 +26°C° 0 mm 1 mps 738 mmHg 77%
    20:00 +23°C° 0 mm 0 mps 738 mmHg 79%
    21:00 +23°C° 0 mm 0 mps 738 mmHg 78%
    22:00 +23°C° 0 mm 0 mps 738 mmHg 78%
    23:00 +22°C° 0 mm 0 mps 738 mmHg 78%

    15 December, Saturday

    Time Temperature Precipitation Wind Pressure Humidity
    00:00 +24°C° 0 mm 1 mps 737 mmHg 78%
    01:00 +24°C° 0 mm 1 mps 737 mmHg 79%
    02:00 +24°C° 0 mm 1 mps 736 mmHg 80%
    03:00 +24°C° 0 mm 1 mps 736 mmHg 81%
    04:00 +23°C° 0 mm 1 mps 737 mmHg 81%
    05:00 +23°C° 0 mm 1 mps 737 mmHg 82%
    06:00 +24°C° 0 mm 1 mps 737 mmHg 78%
    07:00 +25°C° 0 mm 1 mps 738 mmHg 74%
    08:00 +24°C° 0 mm 0 mps 738 mmHg 70%
    09:00 +26°C° 0 mm 0 mps 738 mmHg 62%
    10:00 +28°C° 0 mm 0 mps 738 mmHg 55%
    11:00 +30°C° 0 mm 0 mps 739 mmHg 47%
    12:00 +30°C° 0 mm 0 mps 738 mmHg 46%
    13:00 +32°C° 0 mm 1 mps 737 mmHg 46%
    14:00 +32°C° 0 mm 1 mps 736 mmHg 45%
    15:00 +30°C° 0 mm 1 mps 736 mmHg 54%
    16:00 +29°C° 0 mm 1 mps 736 mmHg 62%
    17:00 +27°C° 0 mm 1 mps 736 mmHg 71%
    18:00 +27°C° 0 mm 1 mps 737 mmHg 73%
    19:00 +26°C° 0 mm 1 mps 737 mmHg 76%
    20:00 +25°C° 0 mm 1 mps 738 mmHg 78%
    21:00 +25°C° 0 mm 1 mps 738 mmHg 79%
    22:00 +25°C° 0 mm 1 mps 738 mmHg 80%
    23:00 +24°C° 0 mm 1 mps 738 mmHg 81%

    16 December, Sunday

    Time Temperature Precipitation Wind Pressure Humidity
    00:00 +24°C° 0 mm 1 mps 738 mmHg 82%
    01:00 +24°C° 0 mm 1 mps 737 mmHg 83%
    02:00 +23°C° 0 mm 1 mps 737 mmHg 83%
    03:00 +23°C° 0 mm 1 mps 737 mmHg 84%
    04:00 +23°C° 0 mm 1 mps 737 mmHg 84%
    05:00 +23°C° 0 mm 1 mps 737 mmHg 85%
    06:00 +24°C° 0 mm 1 mps 738 mmHg 79%
    07:00 +24°C° 0 mm 0 mps 738 mmHg 74%
    08:00 +25°C° 0 mm 0 mps 739 mmHg 68%
    09:00 +29°C° 0 mm 1 mps 739 mmHg 62%
    10:00 +31°C° 0 mm 1 mps 739 mmHg 55%
    11:00 +33°C° 0 mm 1 mps 739 mmHg 49%
    12:00 +33°C° 0 mm 1 mps 738 mmHg 49%
    13:00 +34°C° 0 mm 2 mps 737 mmHg 49%
    14:00 +32°C° 0 mm 2 mps 736 mmHg 49%
    15:00 +31°C° 0 mm 2 mps 736 mmHg 57%
    16:00 +30°C° 0 mm 2 mps 736 mmHg 64%
    17:00 +28°C° 0 mm 1 mps 736 mmHg 72%
    18:00 +27°C° 0 mm 1 mps 737 mmHg 77%
    19:00 +24°C° 0 mm 0 mps 737 mmHg 83%
    20:00 +23°C° 0 mm 0 mps 738 mmHg 89%
    21:00 +23°C° 0 mm 0 mps 738 mmHg 90%
    22:00 +22°C° 0 mm 0 mps 738 mmHg 90%
    23:00 +24°C° 0 mm 1 mps 738 mmHg 91%

    17 December, Monday

    Time Temperature Precipitation Wind Pressure Humidity
    00:00 +24°C° 0 mm 1 mps 738 mmHg 91%
    01:00 +24°C° 0 mm 1 mps 737 mmHg 91%
    02:00 +24°C° 0 mm 1 mps 737 mmHg 92%
    03:00 +23°C° 0 mm 1 mps 737 mmHg 92%
    04:00 +23°C° 0 mm 1 mps 737 mmHg 92%
    05:00 +23°C° 0 mm 1 mps 738 mmHg 92%
    06:00 +23°C° 0 mm 0 mps 738 mmHg 85%
    07:00 +24°C° 0 mm 0 mps 739 mmHg 78%
    08:00 +26°C° 0 mm 0 mps 739 mmHg 71%
    09:00 +28°C° 0 mm 0 mps 739 mmHg 63%
    10:00 +31°C° 0 mm 1 mps 739 mmHg 55%
    11:00 +33°C° 0 mm 1 mps 739 mmHg 47%
    12:00 +33°C° 0 mm 1 mps 738 mmHg 46%
    13:00 +33°C° 0 mm 1 mps 737 mmHg 45%
    14:00 +34°C° 0 mm 2 mps 737 mmHg 45%
    15:00 +32°C° 0 mm 2 mps 737 mmHg 52%
    16:00 +30°C° 0 mm 1 mps 737 mmHg 60%
    17:00 +29°C° 0 mm 1 mps 737 mmHg 68%
    18:00 +28°C° 0 mm 1 mps 737 mmHg 73%
    19:00 +26°C° 0 mm 1 mps 738 mmHg 79%
    20:00 +23°C° 0 mm 0 mps 738 mmHg 85%
    21:00 +23°C° 0 mm 0 mps 738 mmHg 85%
    22:00 +23°C° 0 mm 0 mps 738 mmHg 86%
    23:00 +23°C° 0 mm 0 mps 738 mmHg 86%
    Show more